Home   Weather   Abbotsford   Past weeks

Flag for Canada Past Weather in Abbotsford, British Columbia, Canada — Yesterday and Last 2 Weeks

Now
30 °F

Snow showers. Ice fog.


Feels Like: 27 °F
Forecast: 26 / 36 °F
Wind: 3 mph from East

Location: Abbotsford

Current Time: Feb 27, 2017 at 3:05:07 pm

Latest Report: Feb 27, 2017 at 2:39 pm


Visibility: 0 mi

Pressure: 29.69 "Hg

Humidity: 100%

Dew Point: 30 °F

Location of AbbotsfordLocation

Past Weather in Abbotsford — Graph

°F

Abbotsford Temperature Yesterday

Maximum temperature yesterday: 45 °F (at 1:00 pm)
Minimum temperature yesterday: 32 °F (at 2:00 am)
Average temperature yesterday: 37 °F

High & Low Weather Summary for the Past Weeks

 TemperatureHumidityPressure
High59 °F (Feb 15, 9:16 pm)100% (Feb 14, 10:46 pm)30.44 "Hg (Feb 14, 10:46 pm)
Low27 °F (Feb 25, 3:00 am)37% (Feb 26, 2:00 pm)29.29 "Hg (Feb 16, 2:00 am)
Average40 °F86%29.84 "Hg
* Reported Feb 12 2:00 pm — Feb 27 2:00 pm, Abbotsford, Weather by CustomWeather, © 2017

Note: Actual official high and low records may vary slightly from our data, if they occured in-between our weather recording intervals... More about our weather records

Advertising

Abbotsford Weather History for the Previous 24 Hours

Scroll right to see more
 ConditionsComfort  
Time TempWeatherWind HumidityBarometerVisibility
2:00 pm
Mon, Feb 27
30 °FSnow flurries. Ice fog.3 mph100%29.69 "Hg1 mi
1:33 pm30 °FSnow flurries. Ice fog.3 mph100%29.69 "Hg1 mi
1:00 pm30 °FSnow showers. Ice fog.7 mph93%29.70 "Hg1 mi
12:40 pm30 °FSnow showers. Ice fog.7 mph93%29.70 "Hg1 mi
12:20 pm30 °FSnow showers. Ice fog.7 mph93%29.71 "Hg1 mi
12:00 pm30 °FSnow flurries. Ice fog.7 mph93%29.71 "Hg1 mi
11:41 am30 °FSnow flurries. Ice fog.9 mph93%29.72 "Hg1 mi
11:36 am30 °FSnow flurries. Ice fog.8 mph93%29.72 "Hg1 mi
11:16 am30 °FSnow flurries. Ice fog.8 mph93%29.72 "Hg1 mi
11:00 am30 °FSnow flurries. Ice fog.10 mph93%29.72 "Hg2 mi
10:30 am30 °FSnow flurries. Ice fog.9 mph93%29.73 "Hg2 mi
10:00 am30 °FLight snow. Ice fog.8 mph93%29.74 "Hg2 mi
9:37 am30 °FLight snow. Ice fog.5 mph93%29.74 "Hg1 mi
9:29 am30 °FLight snow. Ice fog.5 mph93%29.75 "Hg1 mi
9:21 am30 °FSnow. Ice fog.2 mph93%29.75 "Hg1 mi
8:56 am30 °FLight snow. Ice fog.3 mph86%29.75 "Hg1 mi
8:41 am30 °FLight snow. Overcast.6 mph86%29.75 "Hg2 mi
8:27 am32 °FLight snow. Mostly cloudy.7 mph75%29.74 "Hg5 mi
8:03 am32 °FLight snow. Cloudy.3 mph64%29.75 "Hg20 mi
7:00 am32 °FMore clouds than sun.9 mph60%29.73 "Hg15 mi
6:00 am30 °FOvercast.3 mph69%29.75 "Hg10 mi
5:00 am30 °FOvercast.3 mph69%29.74 "Hg10 mi
4:00 am30 °FPassing clouds.5 mph64%29.75 "Hg10 mi
3:00 am30 °FPassing clouds.7 mph59%29.75 "Hg10 mi
2:00 am30 °FPassing clouds.6 mph59%29.76 "Hg15 mi
1:00 am32 °FClear.6 mph55%29.76 "Hg15 mi
12:00 am34 °FClear.7 mph48%29.75 "Hg15 mi
11:00 pm
Sun, Feb 26
36 °FClear.13 mph44%29.76 "Hg15 mi
10:00 pm36 °FClear.12 mph48%29.77 "Hg15 mi
9:00 pm36 °FClear.9 mph48%29.77 "Hg15 mi
8:00 pm37 °FPassing clouds.13 mph48%29.77 "Hg15 mi
7:00 pm39 °FPassing clouds.13 mph45%29.76 "Hg12 mi
6:00 pm41 °FPassing clouds.15 mph39%29.76 "Hg30 mi
5:00 pm43 °FPassing clouds.20 mph39%29.75 "Hg25 mi
4:00 pm45 °FPassing clouds.17 mph37%29.74 "Hg25 mi
3:00 pm45 °FScattered clouds.20 mph37%29.73 "Hg25 mi
Weather by CustomWeather, © 2017

See weather overviewHow to use our weather pages